CAPE
0 0 4 71 81 201 403 652 808 938 812 649 655 599 352 508 601 630 723 859 1183 1137
0 0 0 30 90 239 399 690 834 1058 1081 630 403 627 699 697 521 942 1103 958 942 860
0 0 0 0 78 254 434 456 916 1143 1305 955 631 460 630 727 696 764 817 937 1074 1041
22 0 0 0 41 302 424 429 534 953 1290 1175 641 641 634 654 877 797 852 695 828 968
37 35 0 0 0 3 259 354 546 601 1036 1168 989 840 1059 719 1092 889 887 974 860 895
5 0 83 60 0 0 35 102 252 556 771 1062 1110 1039 1077 987 1101 1078 1001 957 966 1140
0 0 0 30 48 0 0 31 86 414 752 1015 1103 1141 1183 1087 1075 1019 982 1053 1081 1249
2 0 0 0 0 0 0 0 47 206 621 1009 1197 1123 1279 1257 1178 1150 1098 1063 1067 1180
147 54 0 0 0 0 0 0 0 46 366 821 1078 1098 963 1062 1406 1437 1463 1495 1421 1379
278 274 189 1 0 0 0 0 0 6 50 334 687 844 771 367 1312 1376 1392 1492 1517 1225
276 313 346 302 20 0 0 0 4 22 57 115 190 235 169 134 785 1175 1183 1131 1170 1230
656 450 374 447 518 188 0 0 0 0 3 119 189 0 0 0 595 894 1158 1079 1069 1150
5 182 642 447 485 506 462 165 6 2 2 0 54 16 0 0 239 336 589 967 1080 321
2 3 83 343 993 688 795 612 544 308 229 64 0 57 0 0 312 508 499 687 737 1172
CIN
-0 -0 -32 -281 -260 -212 -177 -152 -155 -134 -126 -135 -129 -129 -159 -139 -129 -139 -128 -122 -117 -122
-0 -0 -0 -364 -298 -234 -209 -149 -143 -127 -119 -139 -151 -135 -120 -109 -144 -100 -102 -117 -119 -128
-0 -0 -0 -0 -312 -270 -218 -206 -141 -123 -104 -135 -149 -149 -130 -115 -117 -105 -101 -101 -99 -113
-389 -0 -0 -0 -334 -268 -239 -229 -188 -150 -117 -122 -159 -156 -141 -130 -106 -103 -102 -114 -110 -114
-332 -344 -0 -0 -0 -20 -274 -255 -205 -188 -136 -123 -141 -149 -118 -131 -96 -101 -94 -93 -101 -111
-37 -0 -319 -330 -0 -0 -370 -322 -257 -194 -164 -141 -145 -143 -141 -137 -115 -107 -106 -103 -89 -87
-0 -0 -0 -174 -362 -0 -0 -353 -332 -236 -179 -151 -145 -140 -139 -137 -131 -131 -123 -114 -104 -84
-30 -0 -0 -0 -0 -0 -0 -0 -353 -285 -206 -156 -131 -125 -126 -127 -131 -133 -137 -136 -127 -116
-241 -277 -0 -0 -0 -0 -0 -0 -0 -345 -235 -176 -129 -140 -151 -143 -101 -100 -98 -97 -116 -120
-243 -232 -258 -28 -0 -0 -0 -0 -0 -432 -337 -259 -200 -171 -194 -260 -112 -101 -102 -100 -100 -120
-223 -240 -220 -204 -159 -0 -0 -0 -176 -387 -382 -326 -298 -268 -332 -328 -186 -127 -134 -144 -145 -131
-61 -135 -158 -160 -163 -247 -0 -0 -0 -0 -75 -359 -326 -0 -0 -0 -182 -135 -131 -167 -170 -155
-402 -249 -83 -162 -152 -135 -141 -254 -25 -29 -37 -0 -411 -464 -0 -0 -214 -196 -172 -146 -160 -330
-0 -38 -286 -173 -35 -80 -60 -104 -141 -213 -257 -382 -0 -345 -0 -0 -232 -151 -180 -185 -175 -156
Wind_Speed
8 7 6 6 4 4 5 5 5 5 5 5 4 4 4 3 3 3 3 4 3 1
7 7 9 8 6 4 5 4 5 5 6 5 5 5 5 4 4 3 3 4 3 2
11 9 8 8 8 7 6 5 5 6 6 6 6 6 5 4 4 4 4 3 4 3
9 9 7 9 9 9 6 6 6 6 6 6 7 6 6 5 5 5 4 4 5 5
9 10 10 9 10 9 9 6 7 7 7 7 7 7 8 8 7 7 6 6 5 6
10 9 12 11 8 9 10 9 8 7 8 8 8 8 9 8 8 8 7 6 6 7
12 12 12 12 11 10 10 10 10 9 9 8 8 8 8 9 9 9 8 8 7 7
13 12 11 10 10 12 11 11 10 10 9 9 8 7 8 8 9 10 9 8 8 9
12 12 12 12 11 9 11 11 10 12 12 11 8 12 14 10 9 9 9 9 8 8
11 12 12 12 11 12 12 11 12 12 12 13 13 16 17 17 10 10 10 10 9 8
13 14 11 10 12 12 11 11 12 12 13 12 11 15 18 18 14 11 11 11 11 11
6 12 12 14 13 12 10 11 12 12 12 14 14 17 18 14 12 13 13 11 11 11
8 7 11 13 13 10 10 12 9 11 12 15 15 15 19 17 11 13 10 11 11 15
8 8 7 5 7 10 10 10 11 13 12 13 14 14 19 19 14 12 11 11 11 10
Wind_Direction
191 184 174 173 170 188 197 209 174 186 184 201 197 187 185 193 181 185 201 192 193 181
182 192 192 177 173 180 194 203 193 193 192 186 204 187 177 199 200 191 200 218 221 228
191 200 201 176 181 187 193 192 181 194 200 190 192 185 187 193 210 204 211 211 215 227
191 191 192 199 188 191 182 182 190 194 200 204 194 195 186 206 199 219 225 212 218 230
197 183 192 211 201 182 196 186 193 195 199 213 205 191 197 202 200 208 220 233 227 241
198 194 204 205 211 200 192 192 193 188 204 208 212 201 204 204 202 205 217 219 221 239
204 205 209 210 199 201 204 198 193 198 204 207 207 208 208 206 207 208 214 218 217 230
209 211 209 210 210 208 201 209 202 196 201 204 203 208 209 209 215 213 217 220 222 230
208 203 208 207 207 194 214 211 201 201 202 203 210 202 200 200 213 216 219 228 229 232
201 210 207 208 202 205 205 201 207 212 205 209 213 202 203 203 214 216 218 221 226 232
212 217 212 205 208 212 211 207 207 207 208 214 217 203 208 207 213 220 220 219 221 224
235 215 212 218 218 217 213 212 214 207 206 205 221 207 210 202 216 224 229 221 220 219
328 325 226 219 219 218 221 220 219 222 215 214 216 204 208 200 219 227 229 230 227 216
325 319 304 301 231 212 212 217 220 221 220 219 212 217 203 200 211 222 223 230 231 229